TimeEDT,TemperatureF,Dew PointF,Humidity,Sea Level PressureIn,VisibilityMPH,Wind Direction,Wind SpeedMPH,Gust SpeedMPH,PrecipitationIn,Events,Conditions,WindDirDegrees,DateUTC
12:54 AM,55.0,48.0,77,30.18,10.0,WNW,3.5,-,N/A,,Clear,300,2013-06-20 04:54:00
1:54 AM,53.1,48.0,83,30.19,10.0,Calm,Calm,-,N/A,,Clear,0,2013-06-20 05:54:00
2:54 AM,52.0,46.9,83,30.19,10.0,Calm,Calm,-,N/A,,Clear,0,2013-06-20 06:54:00
3:54 AM,51.1,46.9,86,30.20,10.0,NNW,3.5,-,N/A,,Clear,340,2013-06-20 07:54:00
4:54 AM,50.0,46.0,86,30.22,10.0,Calm,Calm,-,N/A,,Clear,0,2013-06-20 08:54:00
5:54 AM,48.9,46.0,90,30.23,10.0,NNE,3.5,-,N/A,,Clear,30,2013-06-20 09:54:00
6:54 AM,52.0,46.0,80,30.24,10.0,NNW,3.5,-,N/A,,Clear,340,2013-06-20 10:54:00
7:54 AM,55.9,48.0,75,30.25,10.0,Calm,Calm,-,N/A,,Clear,0,2013-06-20 11:54:00
8:54 AM,60.1,48.0,64,30.26,10.0,Calm,Calm,-,N/A,,Clear,0,2013-06-20 12:54:00
9:54 AM,64.9,48.9,56,30.25,10.0,Calm,Calm,-,N/A,,Clear,0,2013-06-20 13:54:00
10:54 AM,71.1,51.1,49,30.24,10.0,Variable,4.6,-,N/A,,Clear,0,2013-06-20 14:54:00
11:54 AM,75.0,55.0,50,30.23,10.0,SSE,6.9,-,N/A,,Clear,160,2013-06-20 15:54:00
12:54 PM,75.9,55.0,48,30.22,10.0,Calm,Calm,-,N/A,,Partly Cloudy,0,2013-06-20 16:54:00
1:54 PM,78.1,55.0,45,30.20,10.0,ESE,9.2,-,N/A,,Scattered Clouds,110,2013-06-20 17:54:00
2:54 PM,77.0,54.0,45,30.20,10.0,ESE,4.6,-,N/A,,Scattered Clouds,110,2013-06-20 18:54:00
3:54 PM,80.1,57.0,45,30.19,10.0,SSE,4.6,-,N/A,,Mostly Cloudy,160,2013-06-20 19:54:00
4:54 PM,79.0,57.0,47,30.19,10.0,ESE,4.6,-,N/A,,Scattered Clouds,120,2013-06-20 20:54:00
5:54 PM,79.0,57.0,47,30.19,10.0,SSE,13.8,19.6,N/A,,Clear,150,2013-06-20 21:54:00
6:54 PM,78.1,57.0,48,30.18,10.0,South,6.9,-,N/A,,Clear,170,2013-06-20 22:54:00
7:54 PM,75.9,57.9,54,30.18,10.0,South,10.4,-,N/A,,Clear,180,2013-06-20 23:54:00
8:54 PM,75.0,57.9,55,30.17,10.0,South,12.7,17.3,N/A,,Clear,180,2013-06-21 00:54:00
9:54 PM,73.9,57.9,57,30.19,10.0,South,10.4,-,N/A,,Clear,190,2013-06-21 01:54:00
10:54 PM,70.0,59.0,68,30.20,10.0,NE,3.5,-,N/A,,Mostly Cloudy,40,2013-06-21 02:54:00
11:54 PM,66.9,59.0,76,30.22,10.0,Calm,Calm,-,N/A,,Scattered Clouds,0,2013-06-21 03:54:00